Regional Weather Roundup
Issued by NWS

Home | Current Version | Previous Version | Text Only | Print | Product List | Glossary Off
Versions: 1 2 3 4 5 6 7 8 9 10 11 12 13 14 15 16 17 18 19 20 21 22 23 24 25 26 27 28 29 30 31 32 33 34 35 36 37 38 39 40 41 42 43 44 45 46 47 48 49 50

000
ASUS43 KIND 180709
RWRIN

WEATHER ROUNDUP FOR INDIANA
NATIONAL WEATHER SERVICE INDIANAPOLIS IN
300 AM EDT FRI APR 18 2014

NOTE: "FAIR" INDICATES FEW OR NO CLOUDS BELOW 12,000 FEET WITH NO
SIGNIFICANT WEATHER AND/OR OBSTRUCTIONS TO VISIBILITY.

* - STATION DOES NOT REPORT WEATHER SUCH AS PRECIPITATION OR FOG.

+ - STATION NOT QUALITY CONTROLLED BY THE NATIONAL WEATHER SERVICE.
    USE DATA WITH CAUTION...ESPECIALLY DEWPOINT AND RELATIVE
    HUMIDITY OBSERVATIONS.

INZ001>003-010>013-019-020-180800-
NORTHWEST INDIANA

CITY           SKY/WX    TMP DP  RH WIND       PRES   REMARKS
GARY /AIRPORT/ CLOUDY    48  41  77 CALM      30.25F
LA PORTE +     RAIN      47  42  82 CALM      30.25F
MICHIGAN CITY+ CLOUDY    45  37  76 CALM      30.26F
MONTICELLO +   CLOUDY    45  41  85 NW5       30.25S
RENSSELAER +   CLOUDY    50  39  66 CALM      30.25F
VALPARAISO     LGT RAIN  49  42  77 CALM      30.25F

$$

LMZ046-743>745-180800-
SOUTHERN LAKE MICHIGAN

STATION/POSITION TIME  TEMP WIND        PRES
                       AIR  DIR/SP/G
                 (UTC) (F)  (DEG/KT/KT) (MB)
MICHIGAN CITY    0700   46  100/  3/  5   N/A

$$

INZ004-005-014>016-021>024-180800-
NORTH CENTRAL INDIANA

CITY           SKY/WX    TMP DP  RH WIND       PRES   REMARKS
GOSHEN         CLOUDY    49  43  80 W5        30.24F
LOGANSPORT +   CLOUDY    48  36  61 CALM      30.25S
PERU/GRISSOM   CLOUDY    49  40  71 NW3       30.24S
ROCHESTER +    CLOUDY    50  41  71 CALM      30.25S
SOUTH BEND     NOT AVBL
WARSAW +       CLOUDY    50  37  62 CALM      30.24S

$$

INZ006>009-017-018-025>027-180800-
NORTHEAST INDIANA

CITY           SKY/WX    TMP DP  RH WIND       PRES   REMARKS
ANGOLA *+      CLOUDY    48  41  76 CALM      30.23F
AUBURN +       CLOUDY    50  34  53 W3        30.24S
FORT WAYNE     MOCLDY    45  35  68 SW6       30.25S

$$

INZ028-029-035-036-043>045-051>053-180800-
WEST CENTRAL INDIANA

CITY           SKY/WX    TMP DP  RH WIND       PRES   REMARKS
GREENCASTLE +  PTCLDY    45  36  70 NW3       30.26S
LAFAYETTE      CLOUDY    48  39  71 W3        30.25S
TERRE HAUTE    MOCLDY    46  38  73 CALM      30.25F

$$

INZ030>032-037>040-046>048-054>057-064-065-180800-
CENTRAL INDIANA

CITY           SKY/WX    TMP DP  RH WIND       PRES   REMARKS
CP ATTERBURY + CLEAR     39  36  87 CALM      30.25F
INDIANAPOLIS   PTCLDY    44  36  73 CALM      30.25F
-EAGLE CREEK   PTCLDY    45  39  79 CALM      30.24F
KOKOMO *+      MOCLDY    45  36  70 CALM      30.25S
MARION +       PTCLDY    44  35  70 W3        30.25S
MT COMFORT *+  PTCLDY    41  37  87 CALM      30.25F
SHELBYVILLE    CLEAR     45  37  73 CALM      30.24F
ZIONSVILLE +   MOCLDY    43  35  74 CALM      30.25F

$$

INZ033-034-041-042-049-050-058-059-180800-
EAST CENTRAL INDIANA

CITY           SKY/WX    TMP DP  RH WIND       PRES   REMARKS
MUNCIE         PTCLDY    47  35  63 S5        30.25S

$$

INZ060-061-067>069-081>083-085>088-180800-
SOUTHWEST INDIANA

CITY           SKY/WX    TMP DP  RH WIND       PRES   REMARKS
EVANSVILLE     PTCLDY    49  41  74 CALM      30.25S
HUNTINGBURG *+ PTCLDY    46  37  71 CALM      30.25S
WASHINGTON +   CLEAR     43  40  88 CALM      30.24F

$$

INZ062-063-066-070>080-084-089>092-180800-
SOUTH CENTRAL AND SOUTHEAST INDIANA

CITY           SKY/WX    TMP DP  RH WIND       PRES   REMARKS
BLOOMINGTON    CLEAR     40  35  83 CALM      30.25F

$$




USA.gov is the U.S. government's official web portal to all federal, state and local government web resources and services.